Location: Beuvrequen
(50.8014°N, 1.6652°E)
Time: 12:48:03
(UTC+00:00)

Lacrosse 4 Rocket - Visible Passes

Search period start: 29 May 2022 00:00
Search period end: 08 June 2022 00:00
Orbit: 540 x 613 km, 68.0° (Epoch: 29 May)

Date Brightness Start Highest point End Pass type
(mag) Time Alt. Az. Time Alt. Az. Time Alt. Az.
31 May 3.9 01:48:40 10° SE 01:50:26 12° ESE 01:52:10 10° E visible
01 Jun 3.6 01:51:08 10° SSE 01:54:01 18° ESE 01:56:54 10° ENE visible
02 Jun 3.0 01:54:15 11° SSE 01:57:40 26° ESE 02:01:09 10° NE visible
03 Jun 2.4 01:58:02 13° S 02:01:21 37° ESE 02:05:12 10° NE visible
04 Jun 1.8 02:01:47 15° SSW 02:05:04 54° ESE 02:09:09 10° NE visible
05 Jun 3.8 00:29:51 10° ESE 00:30:55 11° ESE 00:31:59 10° E visible
05 Jun 1.4 02:05:28 16° SSW 02:08:50 79° ESE 02:13:00 10° NE visible
06 Jun 3.5 00:32:53 13° SE 00:34:29 16° ESE 00:37:04 10° ENE visible
06 Jun 1.5 02:09:07 15° SW 02:12:37 72° NW 02:16:47 10° NNE visible
07 Jun 3.0 00:36:29 18° SE 00:38:06 23° ESE 00:41:24 10° ENE visible
07 Jun 1.9 02:12:43 12° SW 02:16:27 51° NW 02:20:30 10° NNE visible
